EHI
0 0 0 0 0 0 0 0 0 0 0 0 0 0 0 0 0 0 0 0 0 0 0 0 0 0 0 0 0 0 0 0 0 0 0 0 0 0
0 0 0 0 0 0 0 0 0 0 0 0 0 0 0 0 0 0 0 0 0 0 0 0 0 0 0 0 0 0 0 0 0 0 0 0 0 0
0 0 0 0 0 0 0 0 0 0 0 0 0 0 0 0 0 0 0 0 0 0 0 0 0 0 0 0 0 0 0 0 0 0 0 0 0 0
0 0 0 0 0 0 0 0 0 0 0 0 0 0 0 0 0 0 0 0 0 0 0 0 0 0 0 0 0 0 0 0 0 0 0 0 0 0
0 0 0 0 0 0 0 0 0 0 0 0 0 0 0 0 0 0 0 0 0 0 0 0 0 0 0 0 0 0 0 0 0 0 0 0 0 0
0 0 0 0 0 0 0 0 0 0 0 0 0 0 0 0 0 0 0 0 0 0 0 0 0 0 0 0 0 0 0 0 0 0 0 0 0 0
0 0 0 0 0 0 0 0 0 0 0 0 0 0 0 0 0 0 0 0 0 0 0 0 0 0 0 0 0 0 0 0 0 0 0 0 0 0
0 0 0 0 0 0 0 0 0 0 0 0 0 0 0 0 0 0 0 0 0 0 0 0 0 0 0 0 0 0 0 0 0 0 0 0 0 0
0 0 0 0 0 0 0 0 0 0 0 0 0 0 0 0 0 0 0 0 0 0 0 0 0 0 0 0 0 0 0 0 0 0 0 0 0 0
0 0 0 0 0 0 0 0 0 0 0 0 0 0 0 0 0 0 0 0 0 0 0 0 0 0 0 0 0 0 0 0 0 0 0 0 0 0
0 0 0 0 0 0 0 0 0 0 0 0 0 0 0 0 0 0 0 0 0 0 0 0 0 0 0 0 0 0 0 0 0 0 0 0 0 0
0 0 0 0 0 0 0 0 0 0 0 0 0 0 0 0 0 0 0 0 0 0 0 0 0 0 0 0 0 0 0 0 0 0 0 0 0 0
0 0 0 0 0 0 0 0 0 0 0 0 0 0 0 0 0 0 0 0 0 0 0 0 0 0 0 0 0 0 0 0 0 0 0 0 0 0
0 0 0 0 0 0 0 0 0 0 0 0 0 0 0 0 0 0 0 0 0 0 0 0 0 0 0 0 0 0 0 0 0 0 0 0 0 0
0 0 0 0 0 0 0 0 0 0 0 0 0 0 0 0 0 0 0 0 0 0 0 0 0 0 0 0 0 0 0 0 0 0 0 0 0 0
0 0 0 0 0 0 0 0 0 0 0 0 0 0 0 0 0 0 0 0 0 0 0 0 0 0 0 0 0 0 0 0 0 0 0 0 0 0
0 0 0 0 0 0 0 0 0 0 0 0 0 0 0 0 0 0 0 0 0 0 0 0 0 0 0 0 0 0 0 0 0 0 0 0 0 0
0 0 0 0 0 0 0 0 0 0 0 0 0 0 0 0 0 0 0 0 0 0 0 0 0 0 0 0 0 0 0 0 0 0 0 0 0 0
0 0 0 0 0 0 0 0 0 0 0 0 0 0 0 0 0 0 0 0 0 0 0 0 0 0 0 0 0 0 0 0 0 0 0 0 0 0
0 0 0 0 0 0 0 0 0 0 0 0 0 0 0 0 0 0 0 0 0 0 0 0 0 0 0 0 0 0 0 0 0 0 0 0 0 0
0 0 0 0 0 0 0 0 0 0 0 0 0 0 0 0 0 0 0 0 0 0 0 0 0 0 0 0 0 0 0 0 0 0 0 0 0 0
0 0 0 0 0 0 0 0 0 0 0 0 0 0 0 0 0 0 0 0 0 0 0 0 0 0 0 0 0 0 0 0 0 0 0 0 0 0
0 0 0 0 0 0 0 0 0 0 0 0 0 0 0 0 0 0 0 0 0 0 0 0 0 0 0 0 0 0 0 0 0 0 0 0 0 0
Wind_Speed
6 7 5 4 4 4 4 5 6 5 5 4 3 2 3 3 5 3 3 4 4 4 4 3 3 4 4 6 6 7 8 9 9 10 10 10 10 10
5 6 6 4 4 4 4 4 4 5 4 3 3 3 4 3 6 4 3 4 3 3 3 2 2 2 3 5 6 7 8 8 9 9 10 10 10 10
6 7 7 6 5 5 4 4 4 4 4 2 2 3 4 5 4 3 2 2 1 4 3 2 1 1 2 4 5 6 7 8 9 9 10 10 11 10
8 8 8 6 7 6 5 6 5 4 5 5 3 3 3 5 4 3 2 2 2 4 4 3 2 0 1 3 4 5 6 7 8 9 9 10 10 9
8 9 9 9 8 6 7 6 5 4 3 4 4 2 2 3 3 2 2 1 2 3 4 4 3 2 1 2 3 4 5 7 8 9 9 10 9 9
7 7 8 9 10 9 7 7 6 5 5 4 4 3 3 3 3 3 2 2 1 1 2 2 2 1 2 1 2 3 5 6 7 8 9 10 10 9
6 6 7 9 10 9 7 8 8 7 6 5 4 4 4 4 4 3 3 2 1 1 1 1 0 0 1 2 2 2 3 5 6 7 8 9 10 10
6 5 5 8 10 12 12 13 12 10 8 6 5 6 6 5 4 4 4 3 2 2 2 1 1 1 1 1 2 1 2 4 5 6 7 8 9 9
6 5 4 5 8 7 9 11 11 12 12 8 7 7 7 7 7 5 4 4 3 3 3 2 1 2 2 2 3 2 1 2 3 4 6 7 8 9
5 6 6 6 7 8 7 6 5 6 7 6 6 6 6 7 7 7 6 4 2 1 3 2 2 2 1 1 3 2 1 1 2 3 4 6 7 8
5 6 7 7 11 12 8 7 5 3 5 8 8 8 10 11 9 6 6 4 2 2 2 3 2 1 1 1 2 2 2 1 1 2 3 4 6 6
3 5 9 10 13 14 9 9 9 6 5 5 5 7 6 8 12 7 7 5 3 3 3 3 2 2 1 1 1 1 1 2 1 1 2 4 4 3
4 4 5 13 14 16 13 9 10 9 7 6 5 4 3 3 3 3 4 5 4 3 4 4 3 2 2 1 1 0 0 1 1 2 2 3 3 3
4 4 5 12 14 15 11 11 13 11 6 6 5 5 4 4 3 3 4 3 3 4 5 5 4 4 3 2 2 1 0 0 0 0 1 3 3 4
4 7 9 12 12 10 13 14 12 7 7 6 6 5 4 4 4 4 4 4 4 3 3 3 4 3 3 3 2 1 1 1 1 1 0 1 1 1
4 6 9 11 9 8 9 9 7 7 7 6 6 4 5 4 4 3 3 3 3 1 2 2 4 5 3 3 3 2 2 2 1 1 1 1 1 1
3 2 3 3 5 4 4 5 6 7 7 5 6 6 6 6 4 4 3 3 3 3 3 1 2 2 3 3 3 3 3 2 2 2 1 1 2 2
5 4 5 5 6 7 7 6 6 7 7 7 6 7 7 7 6 4 3 4 4 4 3 3 3 2 1 2 6 4 3 2 2 2 2 1 3 2
6 5 5 6 6 6 6 7 7 7 7 7 7 7 7 7 6 6 5 4 4 4 4 4 4 4 3 3 3 7 4 3 2 2 2 3 3 3
4 5 5 5 5 6 6 6 6 7 7 7 7 7 7 7 7 7 7 6 5 4 4 4 5 5 5 4 2 3 7 4 3 3 2 2 3 5
4 4 5 5 5 5 6 6 7 7 8 8 8 8 8 7 7 7 7 10 7 5 6 6 6 8 3 2 1 1 2 7 6 4 3 2 1 1
4 4 4 5 5 5 6 6 6 7 8 8 8 8 8 8 8 9 8 7 7 6 5 3 5 5 4 4 4 2 2 1 5 8 7 6 4 4
4 4 4 4 5 5 5 6 7 7 7 8 8 8 8 8 7 7 8 7 6 6 5 5 5 4 4 4 4 3 3 2 2 2 4 9 13 12
Wind_Direction
193 185 178 181 178 174 162 162 163 183 207 193 179 174 158 148 151 134 128 127 117 105 94 77 53 32 20 13 7 2 354 349 346 343 341 340 336 331
189 185 185 180 171 173 170 165 167 170 189 172 169 160 159 155 160 146 148 144 142 147 142 113 64 30 20 9 1 360 355 352 348 346 344 345 345 342
192 189 191 179 177 176 171 167 169 159 167 150 132 139 149 162 157 151 153 151 175 183 177 167 135 35 13 4 0 359 358 357 353 352 353 352 349 346
199 195 194 185 185 177 176 178 175 165 157 161 158 155 165 173 164 165 172 176 189 203 197 197 203 242 345 355 359 360 359 357 357 356 355 353 350 349
202 201 196 186 193 184 180 177 169 160 148 152 159 153 152 158 152 165 175 186 210 213 207 208 217 224 283 325 352 360 1 359 359 2 3 0 356 355
207 206 200 195 195 186 183 178 165 162 155 152 155 157 157 155 156 169 186 199 219 221 207 201 209 224 274 295 344 358 2 359 1 5 7 8 6 5
209 208 206 200 194 188 184 178 171 170 165 167 167 163 172 172 185 171 178 167 220 209 182 214 176 307 314 310 320 343 354 357 3 7 8 12 14 14
209 206 202 195 194 194 191 185 180 177 179 177 181 188 190 181 164 166 154 157 219 204 168 217 173 214 250 260 264 297 346 357 6 13 14 17 20 23
203 196 196 197 188 184 187 186 191 192 185 178 185 190 180 179 166 164 168 175 197 177 150 201 195 221 243 255 240 243 316 352 8 16 16 18 22 25
205 198 194 190 187 176 168 169 176 188 187 181 185 183 177 171 172 170 164 142 102 129 154 181 196 219 239 288 274 247 258 309 350 6 12 18 22 27
215 204 195 194 194 183 171 170 170 181 183 174 174 175 174 172 160 135 138 140 170 202 182 167 172 179 222 261 281 265 256 260 313 356 6 16 25 31
224 215 209 203 198 191 182 178 185 186 165 154 153 157 157 170 172 165 159 154 158 199 192 160 156 144 209 281 285 326 340 312 303 342 7 18 30 42
227 219 216 211 207 203 196 193 194 172 163 157 148 140 130 133 143 152 157 155 160 191 175 147 147 150 160 231 287 258 224 309 342 343 350 2 17 43
233 224 217 213 212 208 203 197 188 170 154 156 161 166 164 163 154 145 141 133 140 167 162 146 147 159 148 168 236 249 254 251 221 289 336 346 360 2
241 234 225 216 211 209 205 195 184 168 161 170 180 181 170 157 137 122 107 103 85 82 121 140 142 144 147 171 194 192 211 244 198 194 275 304 310 344
251 240 234 221 209 203 198 192 179 172 172 177 174 159 145 145 150 146 143 138 126 108 74 110 144 145 153 174 178 197 196 215 214 208 239 271 263 242
256 240 222 205 197 191 185 178 171 171 177 166 164 162 164 164 163 154 145 143 152 160 159 128 115 118 153 162 183 209 201 214 216 194 181 283 274 251
253 224 221 216 205 195 191 188 183 182 178 172 171 171 172 172 167 158 155 160 170 172 168 159 137 108 54 260 211 203 201 207 199 187 177 214 276 269
245 226 222 216 210 199 193 192 192 185 175 175 177 175 172 171 169 172 171 169 176 176 173 161 158 156 170 227 227 200 187 182 170 184 198 202 236 264
233 225 222 217 211 203 197 193 188 180 178 181 179 177 175 173 176 178 179 179 178 174 174 177 184 185 187 192 200 208 199 182 175 187 202 217 254 275
237 229 221 216 211 204 198 193 189 186 183 181 181 179 177 176 180 181 181 191 184 182 193 199 203 185 150 119 155 228 219 207 195 182 174 181 249 286
246 236 223 214 208 204 197 191 188 187 185 185 183 181 180 181 182 181 183 185 190 191 191 174 150 154 163 187 206 203 203 206 222 227 220 202 184 204
244 239 228 212 205 199 197 194 191 189 187 185 183 181 180 183 183 183 184 184 181 181 175 167 164 172 186 192 199 202 205 208 206 220 244 241 238 242